Location: Newark
(44.2003°N, 3.2583°E)
Time: 03:05:58
(UTC+00:00)

FALCON 9 DEB - Pass Details

Date: 25 September 2020
Orbit: 161 x 185 km, 53.0° (Epoch: 28 September)

Event Time Altitude Azimuth Distance (km) Brightness Sun altitude
Exits shadow 04:50:49 - 322° (NW) 997 ? -9.3°
Reaches altitude 10° 04:51:15 10° 328° (NNW) 832 ? -9.2°
Maximum altitude 04:52:48 23° 26° (NNE) 467 ? -8.9°
Drops below altitude 10° 04:54:20 10° 85° (E) 824 ? -8.6°
Sets 04:56:13 0° 102° (ESE) 1,582 ? -8.3°
